[[{"header":{"parameterUnit":"m.s-1","parameterCategory":1,"la1":30.2991,"la2":30.254,"lo1":-89.0895,"lo2":-89.0444,"dy":0.0017,"dx":0.0017,"nx":28,"ny":28,"refTime":"2025-04-09T21:00:00:Z","depth":0,"parameterNumber":2,"parameterNumberName":"U-component_of_WINDS"},"data":[0,0,0,0,0,0,0,0,0,0,0,0,0,0,0,0,0,0,0,0,0,0,0,0,0,0,0,0,0,0,0,0,0,0,0,0,0,0,0,0,0,0,0,0,0,0,0,0,0,0,0,0,0,0,0,0,0,0,1.4235,1.4235,0,1.4236,1.4236,1.4236,1.4144,1.4141,1.4139,1.4137,1.4143,1.4146,1.4148,0,0,0,0,0,0,0,0,0,0,0,0,0,1.4155,1.4157,1.4235,1.4235,1.4235,1.4236,1.4236,1.4236,1.4144,1.4141,1.4138,1.4136,1.4142,1.4145,1.4148,0,0,0,0,0,0,0,0,0,0,0,0,0,1.4177,1.4158,1.4235,1.4189,1.4185,1.4236,1.4236,1.4236,1.4145,1.4141,1.4138,1.4134,1.4141,1.4145,1.4149,1.4246,0,0,1.416,1.4162,0,0,0,0,0,0,0,0,1.4176,1.418,1.4196,1.4192,1.4188,1.4186,1.421,1.424,1.4146,1.416,1.4137,1.4132,1.4161,1.4163,1.4171,1.4246,1.4246,1.416,1.4163,1.4164,1.4165,0,0,0,0,0,0,0,1.4174,1.4179,1.4236,1.4196,1.4191,1.4169,1.4168,1.4216,1.4182,1.4159,1.4152,1.4153,1.4158,1.4168,1.4171,1.4246,1.416,1.4163,1.4166,1.4167,1.4396,1.44,0,0,0,0,0,0,1.4178,1.4178,1.4236,1.4236,1.4172,1.4174,1.4172,1.4191,1.4181,1.4175,1.4156,1.4149,1.4163,1.4166,1.4171,1.428,1.4164,1.4168,1.417,1.4392,1.4397,1.4401,0,0,0,0,0,0,1.4177,1.4184,1.4236,1.4205,1.421,1.4179,1.42,1.4193,1.4202,1.4179,1.4173,1.4173,1.4161,1.4165,1.4226,1.4279,1.4169,1.4173,1.4388,1.4394,1.4399,1.4503,0,0,0,0,0,0,1.4175,1.4184,1.4221,1.4207,1.4212,1.4291,1.4203,1.4195,1.4208,1.4198,1.4192,1.4188,1.4158,1.4221,1.423,1.4283,1.4175,1.4383,1.439,1.4397,1.4495,1.4512,1.4526,0,0,0,0,0,1.4173,1.4252,1.4223,1.4231,1.4257,1.4295,1.4298,1.426,1.4213,1.4249,1.4233,1.4188,1.4272,1.4228,1.4237,1.4292,1.4379,1.4388,1.4397,1.4488,1.4508,1.4526,0,0,0,0,0,0,1.4277,1.425,1.4217,1.4294,1.4297,1.4279,1.4324,1.4284,1.4302,1.4292,1.4246,1.4246,1.4313,1.4309,1.426,1.4383,1.4317,1.4328,1.4384,1.4403,1.4418,1.4418,1.4179,0,0,0,0,0,1.4308,1.434,1.4315,1.4386,1.4388,1.4356,1.4371,1.4341,1.4343,1.4344,1.4333,1.4338,1.4364,1.4384,1.4407,1.4493,1.449,1.4535,1.4551,1.4564,1.4574,1.4616,1.4635,1.443,1.4429,1.4429,0,0,1.4374,1.4363,1.4387,1.4406,1.4405,1.4439,1.4358,1.4398,1.4423,1.4351,1.4406,1.4399,1.44,1.4473,1.4505,1.4471,1.4629,1.4575,1.4585,1.4588,1.4627,1.4646,1.4663,1.4435,1.4434,1.4433,0,0,1.4512,1.4508,1.4564,1.4563,1.456,1.4537,1.4551,1.4538,1.4529,1.4583,1.4529,1.4558,1.4606,1.4608,1.4616,1.475,1.4708,1.4759,1.4841,1.4883,1.4899,1.4913,1.4959,1.4976,1.4769,1.4769,1.477,0,1.4595,1.4643,1.4599,1.4641,1.465,1.4583,1.464,1.4642,1.4648,1.4656,1.4618,1.4674,1.4671,1.4742,1.4774,1.4783,1.4796,1.476,1.49,1.4914,1.4926,1.4969,1.4987,1.4775,1.4775,1.4774,1.4774,0,1.4744,1.4778,1.4824,1.4828,1.4842,1.4892,1.4855,1.4875,1.4843,1.4824,1.4879,1.4872,1.4892,1.4907,1.4878,1.4973,1.4951,1.4908,1.4841,1.4952,1.4992,1.5008,1.4784,1.4782,1.478,1.4779,0,0,1.495,1.4925,1.4943,1.4942,1.4932,1.4958,1.5004,1.502,1.5037,1.5043,1.508,1.512,1.5078,1.5086,1.5057,1.5093,1.5196,1.5044,1.5043,1.5071,1.5297,1.533,1.535,1.5168,1.5171,1.5173,1.5297,0,1.5081,1.5156,1.5115,1.5196,1.5225,1.516,1.5199,1.5198,1.5181,1.5204,1.5185,1.5213,1.5157,1.5161,1.5194,1.5177,1.5241,1.5167,1.5201,1.5203,1.5202,1.5371,1.5406,1.5523,1.5312,1.5315,1.5317,0,1.5245,1.5254,1.5337,1.5317,1.5328,1.5364,1.5374,1.5397,1.5393,1.5378,1.5385,1.5346,1.5389,1.5322,1.538,1.5331,1.5342,1.5335,1.5339,1.534,1.5266,1.5375,1.5559,1.5576,1.5341,1.5339,1.5337,0,1.5384,1.5417,1.5469,1.5471,1.5451,1.5477,1.5471,1.5463,1.5474,1.5483,1.5489,1.5505,1.5513,1.5525,1.549,1.5446,1.5552,1.5484,1.554,1.5541,1.5566,1.5565,1.5753,1.5575,1.5575,1.5575,1.5574,0,1.5534,1.5587,1.5531,1.5563,1.562,1.5572,1.5629,1.5616,1.5609,1.5637,1.5583,1.5611,1.5564,1.5587,1.556,1.5611,1.5616,1.5604,1.5596,1.5608,1.561,1.5615,1.5606,1.5579,1.5578,1.5577,1.5577,0,1.57,1.5664,1.5716,1.5691,1.5686,1.5729,1.5707,1.5736,1.5714,1.575,1.5756,1.5722,1.5746,1.5712,1.5734,1.5715,1.5784,1.5765,1.5785,1.5779,1.5837,1.5831,1.6034,1.6058,1.5867,1.5868,1.587,0,1.5798,1.5836,1.5813,1.5827,1.5822,1.5846,1.5856,1.581,1.5822,1.5818,1.5848,1.5866,1.5879,1.5921,1.5898,1.5914,1.5893,1.5963,1.5896,1.5906,1.5892,1.589,1.5893,1.5978,1.598,1.5982,1.5983,0,1.5974,1.5954,1.5969,1.5977,1.599,1.5995,1.5996,1.6011,1.5962,1.5979,1.6001,1.6011,1.6031,1.605,1.6059,1.6052,1.601,1.6004,1.6018,1.6031,1.604,1.6034,1.5821,1.6,1.5998,1.5997,1.5996,1.5996,1.6107,1.6137,1.6124,1.6142,1.6137,1.6139,1.6163,1.6142,1.6159,1.617,1.6142,1.6171,1.6163,1.617,1.6168,1.6189,1.6159,1.618,1.6185,1.619,1.6198,1.6037,1.6191,1.6191,1.619,1.619,1.6189,0,1.628,1.6267,1.6284,1.6285,1.6299,1.6255,1.6253,1.6268,1.6293,1.6288,1.63,1.6325,1.6342,1.6319,1.6332,1.6354,1.6335,1.6359,1.6357,1.6355,1.6226,1.6211,1.6374,1.6374,1.6374,1.6374,1.6374,1.6374,1.6371,1.6417,1.6394,1.6437,1.6425,1.645,1.6453,1.6453,1.6449,1.6477,1.649,1.6474,1.6462,1.6473,1.6487,1.648,1.6486,1.6517,1.6504,1.6383,1.6365,1.6348,1.6334,1.652,1.652,1.6631,1.6632,1.6633]},{"header":{"parameterUnit":"m.s-1","parameterCategory":1,"la1":30.2991,"la2":30.254,"lo1":-89.0895,"lo2":-89.0444,"dy":0.0017,"dx":0.0017,"nx":28,"ny":28,"refTime":"2025-04-09T21:00:00:Z","depth":0,"parameterNumber":3,"parameterNumberName":"V-component_of_WINDS"},"data":[0,0,0,0,0,0,0,0,0,0,0,0,0,0,0,0,0,0,0,0,0,0,0,0,0,0,0,0,0,0,0,0,0,0,0,0,0,0,0,0,0,0,0,0,0,0,0,0,0,0,0,0,0,0,0,0,0,0,3.2866,3.2867,0,3.2932,3.2933,3.2934,3.2894,3.2892,3.289,3.2888,3.2951,3.2954,3.2957,0,0,0,0,0,0,0,0,0,0,0,0,0,3.2697,3.2701,3.2866,3.2867,3.2867,3.2932,3.2933,3.2934,3.2894,3.2892,3.289,3.2888,3.295,3.2954,3.2958,0,0,0,0,0,0,0,0,0,0,0,0,0,3.2768,3.2702,3.2866,3.2856,3.2855,3.2932,3.2933,3.2934,3.2895,3.2892,3.2889,3.2887,3.2948,3.2953,3.2958,3.3047,0,0,3.2974,3.2976,0,0,0,0,0,0,0,0,3.2764,3.2774,3.2856,3.2856,3.2856,3.2902,3.2897,3.2972,3.2896,3.288,3.2888,3.2885,3.2936,3.2942,3.2961,3.305,3.3052,3.2974,3.2978,3.298,3.2981,0,0,0,0,0,0,0,3.2759,3.2771,3.2892,3.2857,3.2858,3.2845,3.2852,3.2911,3.2923,3.2881,3.2878,3.2887,3.2936,3.2956,3.2962,3.3053,3.2974,3.2979,3.2982,3.2984,3.3216,3.3219,0,0,0,0,0,0,3.2756,3.2767,3.289,3.2894,3.2802,3.2851,3.2859,3.289,3.2922,3.2925,3.2889,3.2885,3.2949,3.2956,3.2964,3.3069,3.298,3.2985,3.2987,3.3213,3.3217,3.322,0,0,0,0,0,0,3.2752,3.2767,3.2887,3.283,3.2844,3.2857,3.2893,3.2893,3.2913,3.2929,3.293,3.2908,3.2947,3.2957,3.3027,3.307,3.2987,3.2992,3.3209,3.3214,3.3218,3.328,0,0,0,0,0,0,3.2748,3.2766,3.2802,3.2831,3.2847,3.2951,3.2895,3.2896,3.2923,3.2918,3.2947,3.2949,3.2945,3.3019,3.3032,3.3076,3.2996,3.3205,3.3211,3.3217,3.3274,3.3286,3.3296,0,0,0,0,0,3.2742,3.2815,3.2804,3.2819,3.2892,3.2953,3.2962,3.2959,3.2927,3.2961,3.2971,3.2948,3.3064,3.3027,3.304,3.3087,3.3203,3.321,3.3216,3.3269,3.3283,3.3296,0,0,0,0,0,0,3.2788,3.2819,3.2806,3.2892,3.2921,3.2947,3.299,3.2975,3.3011,3.3005,3.2997,3.3003,3.3076,3.3088,3.3046,3.3173,3.3128,3.3138,3.3163,3.3177,3.3188,3.3183,3.3,0,0,0,0,0,3.2809,3.2858,3.2881,3.2954,3.297,3.2978,3.3004,3.2999,3.3027,3.3038,3.3053,3.308,3.3122,3.315,3.319,3.3275,3.328,3.3314,3.3325,3.3334,3.3342,3.3387,3.3402,3.3243,3.3243,3.3243,0,0,3.2851,3.2874,3.2905,3.2964,3.2986,3.3035,3.2988,3.3042,3.3077,3.3046,3.3113,3.3125,3.3154,3.3231,3.3266,3.3244,3.3387,3.3343,3.335,3.3354,3.3395,3.341,3.3424,3.3248,3.3247,3.3246,0,0,3.2953,3.2977,3.304,3.3062,3.3096,3.3101,3.3116,3.3145,3.3152,3.3219,3.3197,3.3237,3.3311,3.3332,3.3353,3.3462,3.3442,3.3475,3.3533,3.3577,3.3589,3.36,3.3638,3.3652,3.3484,3.3484,3.3484,0,3.3001,3.3076,3.3073,3.3129,3.3155,3.3131,3.3193,3.3214,3.3259,3.3276,3.3251,3.3342,3.336,3.3441,3.3468,3.3486,3.3501,3.3472,3.3588,3.3599,3.3609,3.3645,3.3659,3.3488,3.3487,3.3487,3.3487,0,3.3133,3.3185,3.3231,3.3277,3.3307,3.3366,3.337,3.3401,3.3393,3.3399,3.3467,3.3488,3.3531,3.355,3.3542,3.363,3.3615,3.3589,3.3543,3.3628,3.3662,3.3675,3.3493,3.3492,3.3491,3.349,0,0,3.3266,3.3309,3.3326,3.3346,3.3381,3.342,3.3477,3.3521,3.3547,3.3578,3.3624,3.3687,3.3663,3.3686,3.368,3.3718,3.3802,3.3687,3.3687,3.3707,3.3898,3.3917,3.3933,3.3789,3.3791,3.3793,3.3895,0,3.3369,3.3471,3.3469,3.3562,3.3609,3.3587,3.3635,3.3661,3.3669,3.3708,3.3715,3.3759,3.3725,3.3738,3.3775,3.3784,3.384,3.3776,3.3829,3.3831,3.3822,3.3951,3.3971,3.4066,3.3908,3.3911,3.3912,0,3.3504,3.3542,3.364,3.3668,3.3687,3.3732,3.3771,3.3809,3.3837,3.3839,3.3866,3.3853,3.3908,3.3861,3.3936,3.3893,3.3914,3.3921,3.3925,3.3929,3.3876,3.3957,3.4097,3.411,3.3933,3.3931,3.393,0,3.359,3.3665,3.3733,3.3751,3.3785,3.3817,3.3832,3.3857,3.3883,3.3917,3.3933,3.3972,3.3993,3.4023,3.4021,3.3987,3.4095,3.4049,3.4097,3.4097,3.4121,3.4119,3.4265,3.4136,3.4136,3.4136,3.4135,0,3.3705,3.3766,3.3772,3.3814,3.388,3.3877,3.3942,3.3954,3.3976,3.4018,3.4,3.4039,3.4034,3.4073,3.4071,3.4132,3.4142,3.4144,3.4143,3.4145,3.4145,3.4158,3.4151,3.4139,3.4138,3.4138,3.4137,0,3.3812,3.3819,3.3892,3.3919,3.3927,3.3975,3.3996,3.4035,3.4041,3.4094,3.4106,3.4114,3.4159,3.416,3.4211,3.4209,3.4283,3.4275,3.4275,3.4273,3.4321,3.4316,3.4479,3.45,3.4359,3.436,3.4362,0,3.3885,3.3932,3.3964,3.3992,3.401,3.4054,3.4081,3.4079,3.4107,3.4142,3.4176,3.4219,3.4254,3.4325,3.4335,3.4373,3.4365,3.4419,3.437,3.4371,3.4364,3.4361,3.4365,3.4428,3.443,3.4431,3.4432,0,3.4013,3.4014,3.4055,3.4097,3.413,3.4163,3.4193,3.4216,3.4216,3.4249,3.4295,3.4322,3.4374,3.4417,3.4454,3.4466,3.4449,3.4448,3.4461,3.4464,3.4461,3.4462,3.43,3.4444,3.4443,3.4442,3.4441,3.4441,3.4105,3.4144,3.4173,3.4219,3.4242,3.427,3.4307,3.4318,3.4358,3.4401,3.4397,3.4448,3.4472,3.4521,3.4537,3.4575,3.4556,3.4575,3.458,3.4584,3.4589,3.4456,3.4582,3.4582,3.4581,3.4581,3.4581,0,3.4231,3.4248,3.4291,3.4334,3.4369,3.4352,3.4383,3.4413,3.4459,3.4485,3.452,3.4572,3.4613,3.4626,3.4665,3.4693,3.4686,3.4703,3.47,3.4703,3.4605,3.4589,3.4708,3.4708,3.4708,3.4708,3.4708,3.4708,3.4301,3.4367,3.4371,3.4447,3.4463,3.4515,3.4535,3.456,3.458,3.464,3.4675,3.4683,3.4703,3.4743,3.4779,3.4782,3.4796,3.4817,3.4816,3.4723,3.471,3.4698,3.4683,3.482,3.4821,3.4911,3.4912,3.4913]}]]